This is the latest recevied weather packets stored in our database for station/object WX4LTG. If no packets are shown the sender has not sent any weather packets the latest 10 day(s).
| Time | Temp. | Humidity | Pressure | Rain* | Wind** | Luminosity | Snow |
|---|---|---|---|---|---|---|---|
| 1777662923 | 27.22° C | 28% | 1011.4 hPa | 0 mm | - | 744 W/m² | - |
| 1777662620 | 27.78° C | 28% | 1011.8 hPa | 0 mm | - | 741 W/m² | - |
| 1777662315 | 27.78° C | 27% | 1011.8 hPa | 0 mm | - | 739 W/m² | - |
| 1777662011 | 27.78° C | 28% | 1011.6 hPa | 0 mm | - | 736 W/m² | - |
| 1777661708 | 27.78° C | 28% | 1011.5 hPa | 0 mm | - | 735 W/m² | - |
| 1777661403 | 28.33° C | 28% | 1011.9 hPa | 0 mm | - | 731 W/m² | - |
| 1777661100 | 27.78° C | 28% | 1011.8 hPa | 0 mm | - | 728 W/m² | - |
| 1777660794 | 26.67° C | 29% | 1011.8 hPa | 0 mm | - | 723 W/m² | - |
| 1777660492 | 26.67° C | 30% | 1011.9 hPa | 0 mm | - | 718 W/m² | - |
| 1777660188 | 26.67° C | 30% | 1012 hPa | 0 mm | - | 715 W/m² | - |
| 1777659885 | 26.67° C | 30% | 1012 hPa | 0 mm | - | 710 W/m² | - |
| 1777659582 | 26.67° C | 30% | 1012.3 hPa | 0 mm | - | 703 W/m² | - |
| 1777659278 | 26.67° C | 29% | 1012.3 hPa | 0 mm | - | 697 W/m² | - |
| 1777658976 | 27.22° C | 29% | 1012.4 hPa | 0 mm | - | 692 W/m² | - |
| 1777658673 | 26.67° C | 30% | 1012.4 hPa | 0 mm | - | 684 W/m² | - |
| 1777658369 | 26.11° C | 30% | 1012.5 hPa | 0 mm | - | 678 W/m² | - |
| 1777658067 | 26.11° C | 31% | 1012.5 hPa | 0 mm | - | 670 W/m² | - |
| 1777657763 | 26.11° C | 31% | 1012.8 hPa | 0 mm | - | 661 W/m² | - |
| 1777657461 | 26.11° C | 31% | 1012.8 hPa | 0 mm | - | 653 W/m² | - |
| 1777657158 | 26.11° C | 31% | 1012.9 hPa | 0 mm | - | 644 W/m² | - |
| 1777656856 | 25.56° C | 32% | 1012.8 hPa | 0 mm | - | 636 W/m² | - |
| 1777656551 | 25.56° C | 33% | 1012.7 hPa | 0 mm | - | 627 W/m² | - |
| 1777656246 | 26.11° C | 32% | 1012.7 hPa | 0 mm | - | 618 W/m² | - |
| 1777655942 | 25.56° C | 32% | 1012.9 hPa | 0 mm | - | 608 W/m² | - |
| 1777655639 | 25.56° C | 32% | 1012.8 hPa | 0 mm | - | 593 W/m² | - |
* Rain latest hour (hover to see other rain measurements)
** Current wind speed in m/s (hover to see current wind gust speed)